Weather Service Report


994 
ASUS46 KSTO 230804
RWRCA 

NORTHERN AND CENTRAL CA REGIONAL WEATHER ROUNDUP
NATIONAL WEATHER SERVICE SACRAMENTO CA 
100 AM PDT THU SEP 23 2021

NOTE: FAIR INDICATES FEW OR NO CLOUDS BELOW 12,000 FEET WITH NO
SIGNIFICANT WEATHER AND/OR OBSTRUCTIONS TO VISIBILITY.

CAZ001-003-230900-
NORTHWEST AREA
  
CITY           SKY/WX    TMP DP  RH WIND       PRES   REMARKS
CRESCENT CITY  FOG       50  48  93 NW5       30.10S VSB 1/4          
UKIAH          CLEAR     62  43  49 CALM      30.00S                  
$$

CAZ006-505>513-230900-
BAY AREA
  
CITY           SKY/WX    TMP DP  RH WIND       PRES   REMARKS
SANTA ROSA     FOG       53  53 100 CALM      29.99S VSB 1/2          
SAN RAFAEL     N/A       56  MM  MM MISG
NAPA           CLEAR     53  50  89 CALM      29.99S                  
CONCORD        CLEAR     59  55  87 N5        29.97S                  
OAKLAND CITY   N/A       58  MM  MM MISG
OAKLAND        PTCLDY    57  54  89 NW9       30.00F                  
SAN FRAN CITY  N/A       55  MM  96 MISG
SAN FRAN ARPT  PTCLDY    56  52  86 NW12      29.98F                  
LIVERMORE      CLEAR     64  49  57 CALM      29.97F                  
HAYWARD        CLEAR     57  54  89 NW7       29.99F                  
SAN JOSE ARPT  CLEAR     62  56  80 NW3       29.99S                  
$$
CAZ034-037-514>518-230900-
CENTRAL COAST
  
CITY           SKY/WX    TMP DP  RH WIND       PRES   REMARKS
WATSONVILLE    CLOUDY    57  56  96 CALM      30.01S FOG              
SALINAS        CLOUDY    59  55  87 N3        30.00F                  
MONTEREY       CLOUDY    57  55  93 W5        30.01S FOG              
SAN LUIS OBISP CLOUDY    57  55  93 NW6       30.01F                  
SANTA MARIA    CLOUDY    57  54  89 CALM      30.01F                  
HALF MOON BAY  CLOUDY    54  54 100 CALM      30.01F                  
$$
CAZ015-016-230900-
NORTHERN SACRAMENTO VALLEY
  
CITY           SKY/WX    TMP DP  RH WIND       PRES   REMARKS
REDDING        CLEAR     76  43  30 N8        30.00R                  
RED BLUFF      CLEAR     72  43  35 NW8       29.99R                  
OROVILLE       CLEAR     75  44  33 E3        29.96R                  
$$
CAZ016>018-230900-
SOUTHERN SACRAMENTO VALLEY
  
CITY           SKY/WX    TMP DP  RH WIND       PRES   REMARKS
AUBURN         CLEAR     72  43  35 E5        30.02S                  
BEALE AFB      CLEAR     64  42  45 E3        29.93S                  
LINCOLN        FAIR      68  45  42 S3        29.94S                  
MARYSVILLE     CLEAR     67  44  43 SE3       29.94S                  
SAC INTL ARPT  CLEAR     68  49  50 SE6       29.93S                  
MATHER AIRPORT CLEAR     64  46  52 CALM      29.93F                  
DOWNTOWN SAC   N/A       71  MM  MM MISG
SAC EXEC ARPT  CLEAR     66  50  56 CALM      29.94S                  
VACAVILLE      CLEAR     62  46  55 SW5       29.94S                  
TRAVIS AFB     CLEAR     59  53  79 SW17      29.93F                  
$$
CAZ019>021-230900-
SAN JOAQUIN VALLEY
  
CITY           SKY/WX    TMP DP  RH WIND       PRES   REMARKS
STOCKTON       CLEAR     64  48  56 N6        29.93S                  
MODESTO        CLEAR     70  47  43 NW6       29.92F                  
MERCED         CLEAR     70  49  47 W6        29.91F                  
LEMOORE        CLEAR     76  46  34 NW10      29.92F                  
FRESNO         PTCLDY    75  49  39 W9        29.92S                  
HANFORD        CLEAR     78  48  34 NW14      29.92S                  
PORTERVILLE      N/A     67  53  61 S5        29.94F                  
BAKERSFIELD    CLEAR     77  46  33 W5        29.95R                  
$$
CAZ011-012-071-230900-
NORTHERN MOUNTAINS
  
CITY           SKY/WX    TMP DP  RH WIND       PRES   REMARKS
YREKA          CLEAR     57  43  59 N10       30.23R                  
MOUNT SHASTA   CLEAR     58  39  49 CALM      30.22R                  
$$
CAZ011-012-071-230900-
SIERRA NEVADA MTNS
  
CITY           SKY/WX    TMP DP  RH WIND       PRES   REMARKS
BLUE CANYON    CLEAR     63  37  38 NE3       30.25F                  
TRUCKEE        CLEAR     43  34  70 SW3       30.31S                  
TAHOE VLY ARPT CLEAR     44  33  65 CALM      30.30F                  
MAMMOTH LAKES  FAIR      39  21  48 N3        30.34S                  
$$
  

Return to Home page


Western Regional Climate Center, wrcc@dri.edu